Mt. Pocono, PA

10:16 PM EDT on June 23, 2017 (GMT -0400)
Pocono Mountains Municipal

Weather History for KMPO - June, 2013

Change the Weather History Date:

Friday, June 7, 2013

  Actual Average Record
Temperature  
Mean Temperature 57 °F 61 °F  
Max Temperature 58 °F 71 °F 88 °F (2008)
Min Temperature 55 °F 52 °F 36 °F (1991)
Degree Days  
Heating Degree Days 8 5  
Month to date heating degree days 37 39  
Since 1 June heating degree days 37 39  
Since 1 July heating degree days 6789 7055  
Cooling Degree Days 0 1  
Month to date cooling degree days 16 7  
Year to date cooling degree days 48 26  
Since 1 June cooling degree days 16 7  
Growing Degree Days 6 (Base 50)    
Moisture  
Dew Point 55 °F    
Average Humidity 97    
Maximum Humidity 100    
Minimum Humidity 93    
Precipitation  
Precipitation 1.28 in 0.19 in 1.96 in (1973)
Month to date precipitation 2.47 1.21  
Year to date precipitation 16.48 18.71  
Sea Level Pressure  
Sea Level Pressure 29.88 in    
Wind  
Wind Speed 11 mph (ESE)    
Max Wind Speed 20 mph    
Max Gust Speed 26 mph    
Visibility 2 miles    
Events Fog , Rain    
T = Trace of Precipitation, MM = Missing Value Source: NWS Daily Summary

Daily Weather History Graph

Daily Weather History Graph

Search for Another Location

Airport or City:

Trip Planner

Search our weather history database for the weather conditions in past years. The results will help you decide how hot, cold, wet, or windy it might be!

Date:

Astronomy

Jun. 07, 2013 Rise Set
Actual Time 5:29 AM EDT 8:32 PM EDT
Civil Twilight 4:55 AM EDT 9:05 PM EDT
Nautical Twilight 4:13 AM EDT 9:48 PM EDT
Astronomical Twilight 3:23 AM EDT 10:38 PM EDT
Moon 4:50 AM EDT (6/7) 7:43 PM EDT (6/7)
Length of Visible Light 16h 09m
Length of Day
15h 02m
Waning Crescent, 1% of the Moon is Illuminated
Jun 7
Waning Crescent
Jun 8
New
Jun 16
First Quarter
Jun 23
Full
Jun 30
Last Quarter

Hourly Weather History & Observations

Time (EDT) Temp. Dew Point Humidity Pressure Visibility Wind Dir Wind Speed Gust Speed Precip Events Conditions
12:06 AM 55.4 °F 53.6 °F 94% 29.99 in 1.0 mi SE 16.1 mph - 0.02 in Rain Light Rain
12:17 AM 55.4 °F 55.4 °F 100% 29.98 in 0.5 mi SE 10.4 mph - 0.02 in Fog , Rain Light Rain
12:24 AM 55.4 °F 55.4 °F 100% 29.98 in 0.2 mi SE 11.5 mph - 0.03 in Fog , Rain Light Rain
12:53 AM 55.9 °F 55.0 °F 97% 29.96 in 0.2 mi SE 13.8 mph - 0.04 in Fog , Rain Light Rain
1:44 AM 55.4 °F 55.4 °F 100% 29.96 in 1.0 mi SE 13.8 mph - 0.03 in Rain Light Rain
1:53 AM 55.9 °F 55.0 °F 97% 29.95 in 2.0 mi SE 12.7 mph - 0.03 in Rain Light Rain
2:07 AM 55.4 °F 55.4 °F 100% 29.95 in 1.8 mi SE 15.0 mph - 0.01 in Rain Light Rain
2:18 AM 55.4 °F 55.4 °F 100% 29.95 in 2.5 mi SE 12.7 mph 20.7 mph 0.02 in Rain Light Rain
2:26 AM 55.4 °F 55.4 °F 100% 29.95 in 5.0 mi SE 11.5 mph - 0.02 in Rain Light Rain
2:35 AM 55.4 °F 55.4 °F 100% 29.94 in 1.8 mi SE 15.0 mph 20.7 mph 0.03 in Rain Light Rain
2:45 AM 55.4 °F 55.4 °F 100% 29.94 in 0.5 mi SE 12.7 mph 20.7 mph 0.03 in Fog , Rain Light Rain
2:53 AM 55.9 °F 55.0 °F 97% 29.94 in 0.2 mi SE 12.7 mph 19.6 mph 0.03 in Fog , Rain Light Rain
3:53 AM 55.0 °F 55.0 °F 100% 29.92 in 0.2 mi ESE 10.4 mph - 0.00 in Fog Fog
4:42 AM 55.4 °F 53.6 °F 94% 29.92 in 0.5 mi ESE 10.4 mph - 0.02 in Fog , Rain Light Rain
4:53 AM 55.0 °F 54.0 °F 96% 29.91 in 0.5 mi ESE 8.1 mph - 0.04 in Fog , Rain Light Rain
5:06 AM 55.4 °F 53.6 °F 94% 29.91 in 1.2 mi ESE 8.1 mph - 0.01 in Rain Light Rain
5:17 AM 55.4 °F 53.6 °F 94% 29.91 in 0.8 mi ESE 10.4 mph - 0.03 in Rain Rain
5:25 AM 55.4 °F 53.6 °F 94% 29.91 in 2.0 mi ESE 6.9 mph - 0.04 in Rain Rain
5:34 AM 55.4 °F 53.6 °F 94% 29.91 in 3.0 mi ESE 6.9 mph - 0.05 in Rain Light Rain
5:39 AM 55.4 °F 53.6 °F 94% 29.91 in 1.8 mi ESE 6.9 mph - 0.05 in Rain Light Rain
5:53 AM 55.0 °F 54.0 °F 96% 29.91 in 0.8 mi East 8.1 mph - 0.07 in Rain Light Rain
6:06 AM 55.4 °F 53.6 °F 94% 29.90 in 0.2 mi ESE 10.4 mph - 0.00 in Fog , Rain Light Rain
6:39 AM 55.4 °F 53.6 °F 94% 29.91 in 1.0 mi ESE 9.2 mph - 0.14 in Rain Heavy Rain
6:45 AM 55.4 °F 55.4 °F 100% 29.92 in 1.2 mi ESE 8.1 mph - 0.17 in Rain Heavy Rain
6:53 AM 55.9 °F 55.0 °F 97% 29.91 in 1.8 mi ESE 8.1 mph - 0.20 in Rain Rain
6:57 AM 55.4 °F 55.4 °F 100% 29.91 in 2.0 mi ESE 10.4 mph - 0.01 in Rain Rain
7:10 AM 55.4 °F 55.4 °F 100% 29.91 in 1.2 mi East 9.2 mph - 0.07 in Rain Heavy Rain
7:20 AM 55.4 °F 55.4 °F 100% 29.90 in 2.0 mi East 9.2 mph - 0.08 in Rain Light Rain
7:28 AM 55.4 °F 55.4 °F 100% 29.90 in 1.0 mi East 10.4 mph - 0.08 in Rain Light Rain
7:33 AM 55.4 °F 55.4 °F 100% 29.90 in 0.5 mi East 10.4 mph - 0.08 in Fog , Rain Light Rain
7:37 AM 55.4 °F 55.4 °F 100% 29.90 in 0.2 mi East 12.7 mph - 0.08 in Fog , Rain Light Rain
7:53 AM 55.9 °F 55.0 °F 97% 29.89 in 0.2 mi East 11.5 mph 18.4 mph 0.09 in Fog , Rain Light Rain
8:08 AM 55.4 °F 55.4 °F 100% 29.90 in 1.0 mi East 11.5 mph - 0.05 in Rain Rain
8:53 AM 57.0 °F 55.9 °F 96% 29.90 in 1.8 mi East 8.1 mph - 0.16 in Rain Light Rain
9:53 AM 57.0 °F 55.9 °F 96% 29.90 in 1.5 mi East 11.5 mph - 0.06 in Rain Light Rain
10:53 AM 57.0 °F 55.9 °F 96% 29.89 in 1.5 mi East 13.8 mph 20.7 mph 0.04 in Rain Light Rain
11:53 AM 57.0 °F 55.9 °F 96% 29.88 in 1.5 mi East 11.5 mph 18.4 mph 0.03 in Rain Light Rain
12:53 PM 57.9 °F 55.9 °F 93% 29.87 in 1.5 mi East 11.5 mph 19.6 mph 0.03 in Rain Light Rain
1:53 PM 57.0 °F 55.9 °F 96% 29.86 in 1.5 mi East 13.8 mph - 0.03 in Rain Light Rain
2:30 PM 57.2 °F 55.4 °F 94% 29.84 in 2.5 mi East 9.2 mph - 0.02 in Rain Light Rain
2:39 PM 57.2 °F 55.4 °F 94% 29.84 in 3.0 mi East 9.2 mph - 0.02 in Rain Light Rain
2:53 PM 57.0 °F 55.9 °F 96% 29.83 in 5.0 mi East 11.5 mph - 0.03 in Rain Light Rain
3:53 PM 57.0 °F 55.9 °F 96% 29.82 in 6.0 mi East 8.1 mph - 0.07 in Rain Rain
4:53 PM 57.9 °F 55.9 °F 93% 29.80 in 5.0 mi ENE 10.4 mph - 0.07 in Rain Light Rain
5:09 PM 57.2 °F 55.4 °F 94% 29.79 in 1.8 mi East 13.8 mph 18.4 mph 0.01 in Rain Light Rain
5:23 PM 57.2 °F 55.4 °F 94% 29.78 in 3.0 mi East 13.8 mph 19.6 mph 0.03 in Rain Light Rain
5:53 PM 57.0 °F 55.9 °F 96% 29.76 in 4.0 mi East 13.8 mph - 0.08 in Rain Rain
6:53 PM 57.0 °F 55.9 °F 96% 29.76 in 7.0 mi ENE 9.2 mph - 0.06 in Rain Light Rain
7:53 PM 57.0 °F 55.9 °F 96% 29.75 in 6.0 mi ENE 10.4 mph - 0.05 in Rain Light Rain
8:53 PM 57.0 °F 55.0 °F 93% 29.72 in 7.0 mi ENE 15.0 mph - 0.07 in Rain Light Rain
9:53 PM 57.0 °F 55.0 °F 93% 29.71 in 10.0 mi ENE 18.4 mph 24.2 mph 0.01 in   Overcast
10:53 PM 57.0 °F 55.0 °F 93% 29.72 in 10.0 mi ENE 8.1 mph - 0.01 in   Overcast
11:38 PM 57.2 °F 55.4 °F 94% 29.72 in 1.8 mi NE 6.9 mph - 0.00 in Rain Light Rain
11:53 PM 57.0 °F 55.0 °F 93% 29.72 in 1.5 mi North 4.6 mph - 0.01 in Rain Light Rain